FDX1421 KMEM-KMYR

Flight info

Callsign FDX1421
Flight time 1h 18m
Altitude 35000
Route AZONE7 PITEW JALAR BBABE DAREE UNJAM
Aircraft B738/M-SDE2E3FGHIRWXY/LB1

Departure

Time 2026-05-04 17:54
Airport Memphis International Airport (KMEM)

Arrival

Time 2026-05-04 19:13
Airport Myrtle Beach International Airport (KMYR)
Time Latitude Longitude Altitude Speed Heading
2026-05-04 17:35 35.06450 -89.97257 266 ft 0 kts 359°
2026-05-04 17:38 35.06451 -89.97466 262 ft 0 kts 356°
2026-05-04 17:48 35.06450 -89.97466 262 ft 1 kts 356°
2026-05-04 17:48 35.06437 -89.97465 263 ft 4 kts 357°
2026-05-04 17:48 35.06390 -89.97446 265 ft 6 kts 290°
2026-05-04 17:49 35.06388 -89.97439 265 ft 0 kts 264°
2026-05-04 17:50 35.06388 -89.97442 265 ft 0 kts 266°
2026-05-04 17:50 35.06386 -89.97498 264 ft 12 kts 261°
2026-05-04 17:50 35.06319 -89.97547 266 ft 12 kts 177°
2026-05-04 17:51 35.06232 -89.97543 269 ft 12 kts 179°
2026-05-04 17:51 35.06138 -89.97543 272 ft 14 kts 180°
2026-05-04 17:51 35.06033 -89.97541 276 ft 16 kts 177°
2026-05-04 17:51 35.05924 -89.97515 280 ft 16 kts 163°
2026-05-04 17:52 35.05810 -89.97483 281 ft 18 kts 179°
2026-05-04 17:52 35.05677 -89.97487 280 ft 19 kts 182°
2026-05-04 17:52 35.05554 -89.97487 284 ft 17 kts 179°
2026-05-04 17:52 35.05489 -89.97509 285 ft 0 kts 220°
2026-05-04 17:53 35.05460 -89.97546 290 ft 12 kts 231°
2026-05-04 17:53 35.05384 -89.97616 287 ft 15 kts 181°
2026-05-04 17:54 35.05163 -89.97611 287 ft 68 kts 179°
2026-05-04 17:54 35.04422 -89.97597 310 ft 142 kts 179°
2026-05-04 17:54 35.03281 -89.97556 733 ft 171 kts 179°
2026-05-04 17:54 35.02042 -89.97491 1595 ft 186 kts 183°
2026-05-04 17:55 35.00754 -89.97443 2659 ft 190 kts 183°
2026-05-04 17:55 34.99372 -89.97406 3106 ft 210 kts 183°
2026-05-04 17:55 34.97851 -89.97051 3489 ft 232 kts 166°
2026-05-04 17:55 34.96327 -89.96353 4158 ft 235 kts 164°
2026-05-04 17:56 34.94788 -89.95489 4558 ft 259 kts 150°
2026-05-04 17:56 34.93520 -89.93843 4953 ft 273 kts 126°
2026-05-04 17:56 34.92894 -89.91642 4980 ft 279 kts 99°
2026-05-04 17:56 34.92773 -89.89260 5020 ft 286 kts 96°
2026-05-04 17:57 34.92670 -89.86828 4990 ft 286 kts 96°
2026-05-04 17:57 34.92673 -89.84402 4978 ft 291 kts 81°
2026-05-04 17:57 34.93407 -89.82110 5002 ft 294 kts 62°
2026-05-04 17:57 34.94464 -89.79969 5029 ft 295 kts 60°
2026-05-04 17:58 34.95526 -89.77821 4981 ft 294 kts 60°
2026-05-04 17:58 34.96554 -89.75673 4980 ft 294 kts 66°
2026-05-04 17:58 34.97115 -89.73318 4995 ft 285 kts 85°
2026-05-04 17:58 34.97360 -89.70905 5015 ft 290 kts 86°
2026-05-04 17:59 34.97587 -89.68454 4993 ft 291 kts 86°
2026-05-04 17:59 34.97819 -89.66017 4993 ft 288 kts 86°
2026-05-04 17:59 34.98316 -89.61144 4992 ft 291 kts 86°
2026-05-04 18:00 34.98557 -89.58704 5000 ft 289 kts 86°
2026-05-04 18:00 34.98794 -89.56272 4992 ft 289 kts 85°
2026-05-04 18:00 34.99027 -89.53832 5092 ft 288 kts 86°
2026-05-04 18:00 34.99270 -89.51364 5519 ft 304 kts 86°
2026-05-04 18:01 34.99535 -89.48712 5940 ft 326 kts 86°
2026-05-04 18:01 34.99819 -89.45881 6351 ft 344 kts 86°
2026-05-04 18:01 35.00114 -89.42952 6926 ft 353 kts 85°
2026-05-04 18:02 35.00729 -89.36854 8072 ft 370 kts 85°
2026-05-04 18:02 35.01046 -89.33708 8702 ft 377 kts 85°
2026-05-04 18:02 35.01368 -89.30491 9281 ft 386 kts 85°
2026-05-04 18:02 35.01698 -89.27212 9895 ft 393 kts 84°
2026-05-04 18:03 35.02030 -89.23884 10431 ft 397 kts 84°
2026-05-04 18:03 35.02361 -89.20519 10992 ft 402 kts 85°
2026-05-04 18:03 35.02521 -89.17102 11562 ft 405 kts 91°
2026-05-04 18:03 35.02517 -89.13658 12152 ft 408 kts 92°
2026-05-04 18:04 35.02488 -89.10186 12753 ft 411 kts 92°
2026-05-04 18:04 35.02471 -89.06688 13347 ft 414 kts 92°
2026-05-04 18:04 35.02441 -88.99630 14485 ft 418 kts 92°
2026-05-04 18:05 35.02428 -88.96072 15039 ft 421 kts 91°
2026-05-04 18:05 35.02415 -88.92496 15597 ft 423 kts 91°
2026-05-04 18:05 35.02402 -88.88897 16176 ft 425 kts 91°
2026-05-04 18:05 35.02389 -88.85333 16765 ft 427 kts 91°
2026-05-04 18:06 35.02359 -88.78070 17959 ft 430 kts 91°
2026-05-04 18:06 35.02340 -88.74421 18530 ft 431 kts 91°
2026-05-04 18:06 35.02321 -88.70763 19068 ft 432 kts 91°
2026-05-04 18:07 35.02300 -88.67096 19615 ft 433 kts 91°
2026-05-04 18:07 35.02279 -88.63423 20167 ft 434 kts 91°
2026-05-04 18:07 35.02257 -88.59744 20735 ft 434 kts 91°
2026-05-04 18:07 35.02234 -88.56057 21301 ft 434 kts 91°
2026-05-04 18:08 35.02209 -88.52374 21883 ft 434 kts 91°
2026-05-04 18:08 35.02184 -88.48689 22483 ft 434 kts 91°
2026-05-04 18:08 35.02157 -88.45014 23089 ft 433 kts 91°
2026-05-04 18:08 35.02129 -88.41347 23686 ft 432 kts 91°
2026-05-04 18:09 35.02071 -88.34050 24718 ft 429 kts 90°
2026-05-04 18:09 35.02009 -88.26811 25803 ft 424 kts 90°
2026-05-04 18:10 35.01976 -88.23224 26364 ft 422 kts 90°
2026-05-04 18:10 35.01943 -88.19658 26926 ft 418 kts 90°
2026-05-04 18:10 35.01908 -88.16129 27505 ft 415 kts 90°
2026-05-04 18:10 35.01873 -88.12627 28094 ft 411 kts 90°
2026-05-04 18:11 35.01838 -88.09163 28695 ft 406 kts 90°
2026-05-04 18:11 35.01802 -88.05744 29302 ft 401 kts 90°
2026-05-04 18:11 35.01765 -88.02369 29917 ft 395 kts 90°
2026-05-04 18:11 35.01728 -87.99053 30475 ft 388 kts 90°
2026-05-04 18:12 35.01691 -87.95795 31014 ft 380 kts 89°
2026-05-04 18:12 35.01654 -87.92596 31409 ft 378 kts 89°
2026-05-04 18:12 35.01617 -87.89342 31313 ft 391 kts 89°
2026-05-04 18:12 35.01578 -87.85964 31189 ft 405 kts 90°
2026-05-04 18:13 35.01490 -87.78933 31303 ft 422 kts 90°
2026-05-04 18:13 35.01394 -87.71654 31449 ft 437 kts 90°
2026-05-04 18:14 35.01343 -87.67916 31517 ft 444 kts 90°
2026-05-04 18:14 35.01236 -87.60260 31649 ft 458 kts 90°
2026-05-04 18:15 35.00987 -87.53732 31742 ft 470 kts 95°
2026-05-04 18:15 35.00165 -87.45714 31868 ft 482 kts 97°
2026-05-04 18:16 34.99229 -87.37520 31987 ft 494 kts 97°
2026-05-04 18:16 34.98311 -87.29134 32106 ft 504 kts 97°
2026-05-04 18:17 34.97410 -87.20614 32428 ft 508 kts 97°
2026-05-04 18:17 34.96962 -87.16357 32748 ft 505 kts 97°
2026-05-04 18:17 34.96068 -87.07894 33432 ft 501 kts 97°
2026-05-04 18:18 34.95620 -87.03684 33691 ft 501 kts 97°
2026-05-04 18:18 34.95171 -86.99479 33921 ft 501 kts 97°
2026-05-04 18:18 34.94719 -86.95273 34177 ft 500 kts 97°
2026-05-04 18:18 34.94267 -86.91078 34420 ft 499 kts 97°
2026-05-04 18:19 34.93360 -86.82695 34759 ft 500 kts 97°
2026-05-04 18:19 34.92902 -86.78489 34919 ft 501 kts 97°
2026-05-04 18:19 34.92443 -86.74286 35032 ft 500 kts 97°
2026-05-04 18:20 34.91526 -86.65920 35039 ft 502 kts 97°
2026-05-04 18:20 34.90596 -86.57498 35047 ft 502 kts 97°
2026-05-04 18:21 34.89660 -86.49073 35041 ft 502 kts 97°
2026-05-04 18:21 34.88718 -86.40651 35041 ft 502 kts 97°
2026-05-04 18:22 34.87770 -86.32221 35032 ft 502 kts 97°
2026-05-04 18:22 34.86814 -86.23790 35032 ft 502 kts 97°
2026-05-04 18:23 34.85854 -86.15372 35024 ft 502 kts 98°
2026-05-04 18:23 34.84890 -86.06956 35027 ft 502 kts 98°
2026-05-04 18:24 34.83920 -85.98549 35033 ft 501 kts 98°
2026-05-04 18:24 34.82945 -85.90152 35035 ft 501 kts 98°
2026-05-04 18:25 34.81964 -85.81749 35034 ft 501 kts 98°
2026-05-04 18:25 34.80977 -85.73352 35036 ft 501 kts 98°
2026-05-04 18:26 34.79984 -85.64954 35038 ft 501 kts 98°
2026-05-04 18:26 34.78988 -85.56554 35035 ft 501 kts 97°
2026-05-04 18:27 34.78175 -85.48132 35028 ft 502 kts 96°
2026-05-04 18:27 34.77468 -85.39694 35044 ft 502 kts 96°
2026-05-04 18:28 34.76738 -85.31251 35036 ft 502 kts 96°
2026-05-04 18:28 34.75974 -85.22798 35047 ft 503 kts 96°
2026-05-04 18:29 34.75200 -85.14396 35055 ft 504 kts 96°
2026-05-04 18:29 34.74414 -85.05931 35056 ft 504 kts 96°
2026-05-04 18:30 34.73224 -84.93215 35069 ft 505 kts 96°
2026-05-04 18:31 34.72423 -84.84725 35063 ft 505 kts 96°
2026-05-04 18:31 34.71616 -84.76239 35059 ft 506 kts 97°
2026-05-04 18:32 34.70803 -84.67752 35063 ft 506 kts 97°
2026-05-04 18:32 34.69982 -84.59254 35053 ft 506 kts 97°
2026-05-04 18:33 34.69157 -84.50760 35056 ft 506 kts 97°
2026-05-04 18:33 34.68325 -84.42271 35063 ft 506 kts 97°
2026-05-04 18:34 34.67488 -84.33787 35058 ft 506 kts 97°
2026-05-04 18:34 34.66644 -84.25298 35069 ft 506 kts 97°
2026-05-04 18:35 34.65794 -84.16809 35071 ft 506 kts 97°
2026-05-04 18:35 34.64940 -84.08333 35072 ft 506 kts 97°
2026-05-04 18:36 34.64079 -83.99844 35061 ft 506 kts 97°
2026-05-04 18:36 34.63214 -83.91371 35067 ft 506 kts 97°
2026-05-04 18:37 34.62325 -83.82903 35065 ft 506 kts 98°
2026-05-04 18:37 34.61300 -83.74447 35068 ft 506 kts 99°
2026-05-04 18:38 34.60232 -83.66001 35073 ft 507 kts 99°
2026-05-04 18:38 34.59170 -83.57536 35074 ft 507 kts 99°
2026-05-04 18:39 34.58117 -83.49073 35078 ft 507 kts 99°
2026-05-04 18:39 34.57061 -83.40602 35082 ft 508 kts 99°
2026-05-04 18:40 34.55998 -83.32128 35084 ft 508 kts 99°
2026-05-04 18:40 34.54928 -83.23653 35086 ft 508 kts 99°
2026-05-04 18:41 34.53852 -83.15184 35083 ft 508 kts 99°
2026-05-04 18:41 34.52771 -83.06720 35066 ft 508 kts 99°
2026-05-04 18:42 34.51683 -82.98257 35067 ft 508 kts 99°
2026-05-04 18:42 34.50590 -82.89793 35069 ft 508 kts 99°
2026-05-04 18:43 34.49492 -82.81342 35067 ft 508 kts 99°
2026-05-04 18:43 34.48388 -82.72888 35078 ft 508 kts 99°
2026-05-04 18:44 34.47278 -82.64442 35073 ft 508 kts 99°
2026-05-04 18:44 34.46163 -82.55997 35071 ft 508 kts 100°
2026-05-04 18:45 34.45049 -82.47610 35070 ft 508 kts 100°
2026-05-04 18:45 34.43921 -82.39164 35062 ft 508 kts 100°
2026-05-04 18:46 34.42788 -82.30726 35080 ft 507 kts 100°
2026-05-04 18:46 34.41650 -82.22297 35081 ft 507 kts 100°
2026-05-04 18:47 34.40508 -82.13876 35087 ft 507 kts 100°
2026-05-04 18:47 34.39359 -82.05456 35070 ft 507 kts 100°
2026-05-04 18:48 34.38205 -81.97040 35071 ft 507 kts 100°
2026-05-04 18:48 34.37045 -81.88628 35072 ft 506 kts 100°
2026-05-04 18:49 34.35881 -81.80225 35089 ft 506 kts 100°
2026-05-04 18:49 34.34709 -81.71816 35096 ft 506 kts 101°
2026-05-04 18:50 34.33534 -81.63424 35089 ft 506 kts 101°
2026-05-04 18:50 34.32353 -81.55030 35097 ft 506 kts 101°
2026-05-04 18:51 34.31166 -81.46640 35081 ft 506 kts 101°
2026-05-04 18:51 34.29972 -81.38246 34902 ft 509 kts 101°
2026-05-04 18:51 34.29368 -81.34018 34465 ft 511 kts 101°
2026-05-04 18:52 34.28764 -81.29793 33879 ft 508 kts 101°
2026-05-04 18:52 34.28162 -81.25594 33260 ft 505 kts 101°
2026-05-04 18:52 34.27562 -81.21420 32592 ft 504 kts 101°
2026-05-04 18:52 34.26959 -81.17243 31924 ft 506 kts 101°
2026-05-04 18:53 34.26353 -81.13050 31276 ft 506 kts 101°
2026-05-04 18:53 34.25746 -81.08858 30646 ft 507 kts 101°
2026-05-04 18:53 34.25135 -81.04653 30002 ft 508 kts 100°
2026-05-04 18:53 34.24523 -81.00450 29284 ft 508 kts 100°
2026-05-04 18:54 34.23906 -80.96225 28582 ft 513 kts 100°
2026-05-04 18:54 34.23283 -80.91963 27892 ft 518 kts 100°
2026-05-04 18:54 34.22654 -80.87676 27200 ft 520 kts 100°
2026-05-04 18:54 34.22023 -80.83375 26521 ft 519 kts 100°
2026-05-04 18:55 34.21388 -80.79088 25857 ft 518 kts 101°
2026-05-04 18:55 34.19906 -80.70580 24571 ft 516 kts 103°
2026-05-04 18:55 34.19108 -80.66364 23952 ft 512 kts 103°
2026-05-04 18:56 34.18315 -80.62205 23259 ft 505 kts 103°
2026-05-04 18:56 34.17540 -80.58103 22555 ft 498 kts 103°
2026-05-04 18:56 34.16783 -80.54057 21855 ft 491 kts 102°
2026-05-04 18:56 34.16040 -80.50048 21165 ft 487 kts 102°
2026-05-04 18:57 34.15306 -80.46072 20492 ft 483 kts 102°
2026-05-04 18:57 34.14581 -80.42137 19845 ft 477 kts 102°
2026-05-04 18:57 34.13864 -80.38248 19208 ft 472 kts 102°
2026-05-04 18:57 34.13153 -80.34402 18571 ft 467 kts 102°
2026-05-04 18:58 34.12447 -80.30593 17883 ft 462 kts 102°
2026-05-04 18:58 34.11749 -80.26831 17169 ft 458 kts 102°
2026-05-04 18:58 34.11056 -80.23104 16484 ft 453 kts 102°
2026-05-04 18:58 34.10369 -80.19418 15808 ft 448 kts 102°
2026-05-04 18:59 34.09687 -80.15770 15143 ft 443 kts 102°
2026-05-04 18:59 34.09012 -80.12163 14489 ft 439 kts 102°
2026-05-04 18:59 34.08342 -80.08589 13880 ft 435 kts 102°
2026-05-04 18:59 34.07691 -80.05126 13594 ft 421 kts 102°
2026-05-04 19:00 34.07042 -80.01678 13125 ft 412 kts 102°
2026-05-04 19:00 34.06623 -79.99451 12691 ft 411 kts 102°
2026-05-04 19:00 34.05786 -79.95009 11853 ft 408 kts 102°
2026-05-04 19:00 34.05362 -79.92764 11498 ft 405 kts 102°
2026-05-04 19:01 34.04539 -79.88432 11001 ft 395 kts 102°
2026-05-04 19:01 34.03928 -79.85207 10692 ft 395 kts 102°
2026-05-04 19:01 34.03316 -79.81981 10408 ft 396 kts 102°
2026-05-04 19:01 34.02703 -79.78750 10085 ft 395 kts 102°
2026-05-04 19:02 34.02290 -79.76579 9867 ft 393 kts 102°
2026-05-04 19:02 34.01681 -79.73375 9544 ft 391 kts 102°
2026-05-04 19:02 34.01080 -79.70229 9196 ft 389 kts 102°
2026-05-04 19:02 34.00476 -79.67063 8882 ft 387 kts 102°
2026-05-04 19:03 33.99872 -79.63908 8558 ft 386 kts 102°
2026-05-04 19:03 33.99270 -79.60768 8245 ft 384 kts 102°
2026-05-04 19:03 33.98669 -79.57642 7928 ft 383 kts 102°
2026-05-04 19:03 33.98062 -79.54492 7725 ft 379 kts 103°
2026-05-04 19:04 33.97470 -79.51420 7581 ft 374 kts 103°
2026-05-04 19:04 33.96889 -79.48388 7382 ft 377 kts 103°
2026-05-04 19:04 33.96293 -79.45292 7175 ft 382 kts 103°
2026-05-04 19:04 33.95692 -79.42183 6910 ft 380 kts 103°
2026-05-04 19:05 33.95090 -79.39081 6662 ft 381 kts 103°
2026-05-04 19:05 33.94488 -79.35979 6371 ft 379 kts 103°
2026-05-04 19:05 33.93888 -79.32898 6062 ft 375 kts 104°
2026-05-04 19:05 33.93296 -79.29854 5755 ft 370 kts 104°
2026-05-04 19:06 33.92717 -79.26869 5476 ft 361 kts 104°
2026-05-04 19:06 33.92150 -79.23964 5144 ft 352 kts 105°
2026-05-04 19:06 33.91599 -79.21141 4834 ft 341 kts 105°
2026-05-04 19:06 33.91070 -79.18423 4482 ft 328 kts 105°
2026-05-04 19:07 33.90559 -79.15797 4129 ft 317 kts 105°
2026-05-04 19:07 33.90055 -79.13248 3824 ft 309 kts 105°
2026-05-04 19:07 33.89567 -79.10757 3393 ft 302 kts 105°
2026-05-04 19:07 33.89096 -79.08348 3087 ft 293 kts 106°
2026-05-04 19:08 33.88632 -79.06007 2751 ft 282 kts 106°
2026-05-04 19:08 33.88168 -79.03792 2520 ft 264 kts 107°
2026-05-04 19:08 33.87743 -79.01683 2229 ft 251 kts 107°
2026-05-04 19:08 33.87366 -78.99739 2182 ft 226 kts 106°
2026-05-04 19:09 33.86706 -78.98130 1996 ft 210 kts 137°
2026-05-04 19:09 33.85566 -78.97291 2027 ft 180 kts 157°
2026-05-04 19:09 33.84417 -78.96925 1995 ft 160 kts 169°
2026-05-04 19:09 33.83321 -78.96654 2020 ft 162 kts 168°
2026-05-04 19:10 33.82177 -78.96349 2029 ft 170 kts 169°
2026-05-04 19:10 33.81029 -78.96075 2083 ft 170 kts 169°
2026-05-04 19:10 33.79880 -78.95793 1929 ft 162 kts 169°
2026-05-04 19:10 33.78808 -78.95531 2003 ft 161 kts 169°
2026-05-04 19:11 33.77683 -78.95221 1868 ft 168 kts 166°
2026-05-04 19:11 33.76577 -78.94943 1732 ft 159 kts 170°
2026-05-04 19:11 33.75498 -78.94687 1467 ft 159 kts 169°
2026-05-04 19:11 33.74423 -78.94403 1197 ft 156 kts 168°
2026-05-04 19:12 33.73379 -78.94162 994 ft 152 kts 169°
2026-05-04 19:12 33.71323 -78.93665 529 ft 156 kts 168°
2026-05-04 19:12 33.70256 -78.93397 299 ft 156 kts 167°
2026-05-04 19:13 33.69210 -78.93134 65 ft 148 kts 168°
2026-05-04 19:13 33.68276 -78.92907 30 ft 117 kts 169°
2026-05-04 19:13 33.67735 -78.92769 30 ft 47 kts 163°
2026-05-04 19:13 33.67505 -78.92604 29 ft 37 kts 139°
2026-05-04 19:14 33.67479 -78.92577 29 ft 0 kts 138°
2026-05-04 19:14 33.67458 -78.92555 30 ft 14 kts 139°
2026-05-04 19:15 33.67364 -78.92450 29 ft 18 kts 131°
2026-05-04 19:15 33.67373 -78.92343 30 ft 8 kts 26°
2026-05-04 19:15 33.67460 -78.92354 30 ft 17 kts 347°
2026-05-04 19:15 33.67607 -78.92391 30 ft 25 kts 348°
2026-05-04 19:16 33.67778 -78.92461 30 ft 29 kts 335°
2026-05-04 19:16 33.67964 -78.92539 31 ft 24 kts 347°
2026-05-04 19:16 33.68129 -78.92582 31 ft 20 kts 348°
2026-05-04 19:16 33.68262 -78.92556 31 ft 18 kts 355°
2026-05-04 19:17 33.68369 -78.92582 31 ft 1 kts 353°
2026-05-04 19:17 33.68417 -78.92593 31 ft 20 kts 351°
2026-05-04 19:17 33.68522 -78.92583 31 ft 12 kts 43°
2026-05-04 19:17 33.68549 -78.92552 29 ft 0 kts 43°